Weather in Khaukkavaara

Russia / Republic of Karelia     61°15′08″N   29°41′14″E
temp.,
°C
wind,
m/s
gust,
m/s
humid.,
%
clouds,
%
prec.,
mm/h
press.,
hPa
HPBL,
m
31 july, sat
sat3100:00+14sse277994 0.0 995203
03:00+14sse398599 0.0 994336
06:00+13se2794100 0.7 992384
09:00+15ese118468 0.7 992485
12:00+20nw235984 0.1 9941240
15:00+22wnw355174 0.3 9951614
18:00+21w366273 0.8 9971019
21:00+17sw256946 0.9 999109
1 august, sun
sun100:00+16sw497657 0.0 999223
03:00+15ssw389047 0.0 1000252
06:00+15sw399734 0.0 1000303
09:00+19sw3573100 0.1 999682
12:00+21s566495 0.4 9991217
15:00+22sw6105122 2.9 9981424
18:00+21sw685810 0.0 9981295
21:00+17wsw5119129 0.4 998702
2 august, mon
mon200:00+15sw5119570 0.0 1000596
03:00+15wsw4108822 0.0 1001597
06:00+14sw411894 0.0 1002481
09:00+18wsw4768100 0.0 1002891
12:00+22sw354871 0.0 10021690
15:00+22ssw2447100 0.0 10011189
18:00+21sw1353100 0.0 1000631
21:00+17wsw1167100 0.0 100018
3 august, tue
tue300:00+15w2273100 0.0 99929
03:00+13w248888 0.1 99971
06:00+13wsw259547 1.0 999154
09:00+17wsw35745 1.0 999512
12:00+21wsw444721 0.0 9991744
15:00+21wnw564815 0.1 10001630
18:00+18nw576491 0.3 10031169
21:00+15wnw487645 0.3 1005687
4 august, wed
wed400:00+14nw487718 0.1 1007669
03:00+11wnw388585 0.1 1008402
06:00+12wnw397319 0.0 1010562
09:00+16wnw35525 0.0 1012966
12:00+20nw353552 0.0 10122287
15:00+21wnw243393 0.0 10132271
18:00+20wsw333757 0.0 10141763
21:00+16w115870 0.0 101531